Morrisville, VT

11:48 AM EST on November 20, 2019 (GMT -0500)
Morrisville Stowe State

Weather History for KMVL - September, 2019

Change the Weather History Date:

Saturday, September 21, 2019

  Actual Average Record
Temperature  
Mean Temperature 62 °F 56 °F  
Max Temperature 80 °F 68 °F 82 °F (1998)
Min Temperature 45 °F 44 °F 33 °F (2010)
Degree Days  
Heating Degree Days 2 10  
Month to date heating degree days 157 133  
Since 1 July heating degree days 222 228  
Cooling Degree Days 0 0  
Month to date cooling degree days 4 13  
Year to date cooling degree days 247 260  
Growing Degree Days 12 (Base 50)    
Moisture  
Dew Point 50 °F    
Average Humidity 88    
Maximum Humidity 100    
Minimum Humidity 45    
Precipitation  
Precipitation 0.00 in 0.13 in 1.00 in (2018)
Month to date precipitation 2.02 2.29  
Year to date precipitation 29.25 26.05  
Sea Level Pressure  
Sea Level Pressure 30.21 in    
Wind  
Wind Speed 0 mph ()    
Max Wind Speed 8 mph    
Max Gust Speed 11 mph    
Visibility 6.5 miles    
Events Fog    
T = Trace of Precipitation, MM = Missing Value Source: Averaged Metar Reports

Daily Weather History Graph

Daily Weather History Graph

Search for Another Location

Airport or City:

Astronomy

Sep. 21, 2019 Rise Set
Actual Time 6:36 AM EDT 6:50 PM EDT
Civil Twilight 6:06 AM EDT 7:19 PM EDT
Nautical Twilight 5:32 AM EDT 7:53 PM EDT
Astronomical Twilight 4:57 AM EDT 8:28 PM EDT
Moon 11:09 PM EDT (9/21) 1:54 PM EDT (9/21)
Length of Visible Light 13h 12m
Length of Day
12h 14m
Waning Gibbous, 55% of the Moon is Illuminated
Sep 21
Waning Gibbous
Sep 21
Last Quarter
Sep 28
New
Oct 5
First Quarter
Oct 13
Full

Hourly Weather History & Observations

Time (EDT) Temp. Windchill Dew Point Humidity Pressure Visibility Wind Dir Wind Speed Gust Speed Precip Events Conditions
12:54 AM 50.0 °F - 48.0 °F 93% 30.19 in 10.0 mi Calm Calm - N/A   Clear
1:54 AM 48.0 °F - 46.9 °F 96% 30.20 in 10.0 mi Calm Calm - N/A   Clear
2:54 AM 46.9 °F - 46.0 °F 97% 30.20 in 10.0 mi Calm Calm - N/A   Clear
3:29 AM 46.0 °F - 45.0 °F 96% 30.20 in 10.0 mi Calm Calm - N/A   Partly Cloudy
3:54 AM 46.9 °F - 46.0 °F 97% 30.21 in 10.0 mi Calm Calm - N/A   Partly Cloudy
4:36 AM 46.0 °F - 45.0 °F 96% 30.21 in 10.0 mi Calm Calm - N/A   Mostly Cloudy
4:54 AM 46.0 °F - 45.0 °F 96% 30.22 in 10.0 mi Calm Calm - N/A   Overcast
5:06 AM 46.0 °F - 45.0 °F 96% 30.22 in 1.8 mi Calm Calm - N/A   Overcast
5:13 AM 46.0 °F - 45.0 °F 96% 30.22 in 0.8 mi Calm Calm - N/A   Mist
5:54 AM 46.0 °F - 45.0 °F 96% 30.23 in 0.8 mi Calm Calm - N/A   Mist
5:57 AM 46.0 °F - 45.0 °F 96% 30.22 in 1.2 mi Calm Calm - N/A   Overcast
6:00 AM 46.0 °F - 45.0 °F 96% 30.22 in 3.0 mi Calm Calm - N/A   Overcast
6:30 AM 46.0 °F - 45.0 °F 96% 30.23 in 1.8 mi Calm Calm - N/A   Overcast
6:42 AM 45.0 °F - 44.1 °F 97% 30.23 in 4.0 mi Calm Calm - N/A   Overcast
6:47 AM 46.0 °F 44.8 °F 45.0 °F 96% 30.23 in 1.5 mi SSW 3.5 mph - N/A   Overcast
6:49 AM 46.4 °F - 44.6 °F 93% 30.23 in 0.8 mi Calm Calm - N/A   Mist
6:54 AM 45.0 °F - 45.0 °F 100% 30.25 in 0.5 mi Calm Calm - N/A Fog Fog
7:12 AM 46.0 °F 44.8 °F 45.0 °F 96% 30.24 in 1.5 mi SW 3.5 mph - N/A   Mostly Cloudy
7:16 AM 46.0 °F - 45.0 °F 96% 30.24 in 3.0 mi Calm Calm - N/A   Mostly Cloudy
7:29 AM 46.9 °F - 46.0 °F 97% 30.24 in 2.5 mi Calm Calm - N/A   Overcast
7:38 AM 48.0 °F - 46.9 °F 96% 30.25 in 4.0 mi Calm Calm - N/A   Overcast
7:54 AM 48.9 °F - 46.9 °F 93% 30.27 in 8.0 mi Calm Calm - N/A   Overcast
8:23 AM 51.1 °F - 50.0 °F 96% 30.26 in 10.0 mi Calm Calm - N/A   Mostly Cloudy
8:54 AM 54.0 °F - 52.0 °F 93% 30.28 in 10.0 mi Calm Calm - N/A   Mostly Cloudy
9:54 AM 62.1 °F - 55.9 °F 80% 30.27 in 10.0 mi Calm Calm - N/A   Mostly Cloudy
10:54 AM 70.0 °F - 57.0 °F 63% 30.25 in 10.0 mi Calm Calm - N/A   Clear
11:54 AM 75.0 °F - 57.0 °F 53% 30.22 in 10.0 mi Calm Calm - N/A   Clear
12:54 PM 77.0 °F - 59.0 °F 54% 30.21 in 10.0 mi Variable 3.5 mph - N/A   Clear
1:54 PM 78.1 °F - 57.0 °F 48% 30.19 in 10.0 mi North 6.9 mph - N/A   Clear
3:54 PM 80.1 °F - 57.0 °F 45% 30.17 in 10.0 mi Calm Calm - N/A   Clear
4:54 PM 79.0 °F - 57.9 °F 48% 30.17 in 10.0 mi NNE 5.8 mph - N/A   Clear
5:54 PM 72.0 °F - 61.0 °F 68% 30.17 in 10.0 mi Calm Calm - N/A   Clear
6:54 PM 64.0 °F - 61.0 °F 90% 30.17 in 10.0 mi SSW 3.5 mph - N/A   Clear
7:54 PM 60.1 °F - 57.9 °F 93% 30.17 in 10.0 mi SSW 3.5 mph - N/A   Clear
8:54 PM 57.9 °F - 55.9 °F 93% 30.17 in 10.0 mi Calm Calm - N/A   Clear
9:54 PM 55.9 °F - 55.0 °F 97% 30.18 in 10.0 mi Calm Calm - N/A   Clear
10:54 PM 55.0 °F - 53.1 °F 93% 30.17 in 7.0 mi Calm Calm - N/A   Clear
11:35 PM 55.0 °F - 53.1 °F 93% 30.17 in 7.0 mi Calm Calm - N/A   Scattered Clouds
11:43 PM 53.1 °F - 52.0 °F 96% 30.17 in 6.0 mi Calm Calm - N/A   Mostly Cloudy
11:46 PM 53.1 °F - 52.0 °F 96% 30.17 in 1.0 mi Calm Calm - N/A   Mist
11:54 PM 52.0 °F - 51.1 °F 97% 30.17 in 0.2 mi Calm Calm - N/A Fog Fog